Find Starlink 11535

NORAD ID: 62595 Int'l Des: 2025-008 Owner: SPXS Country: US Constellation: starlink operational
LEOCIRCULAR

現在のビュー

3D地球を読み込み中...

About Starlink 11535

Starlink 11535 (NORAD 62595) is a starlink constellation satellite (v2 mini d2c) launched Jan 13, 2025 by SPXS of US. It operates in LEO, CIRCULAR orbit with a mass of 960.00 kg.

Starlink 11535について

説明を読み込み中...

次回通過

Passes for default location (London). Set your location on the main map for personalized predictions.

高度履歴

Loading altitude history...

軌道要素

1 62595U 25008J 26169.24687265 .00135742 00000-0 10452-2 0 9992
2 62595 42.9998 239.6482 0001917 331.6936 28.3828 15.70815212 82950
Epoch: Jun 18, 2026 • Age: 14 hours

現在のステータス

高度 358.7 km
速度 7.70 km/s
衛星直下点 35.19°N, 157.56°E
打ち上げ日 Jan 13, 2025
運用期間 1.4 years
タイプ internet

技術仕様

分類 Payload
質量 960.00 kg
乾燥質量 910.00 kg
総質量 960.00 kg
長さ 0.30 m
直径 4.10 m
スパン 29.00 m
形状 Box + pan
製造者 SPXS
バスタイプ Starlink V2MD
フェーズステータス In Orbit
所有者/国 SPXS/US

Most Searched